Regional Weather Roundup
Issued by NWS Sioux Falls, SD

Home | Current Version | Previous Version | Text Only | Print | Product List | Glossary On
Versions: 1 2 3 4 5 6 7 8 9 10 11 12 13 14 15 16 17 18 19 20 21 22 23 24 25 26 27 28 29 30 31 32 33 34 35 36 37 38 39 40 41 42 43 44 45 46 47 48 49 50
000
ASUS43 KFSD 251702
RWRFSD

WEATHER ROUNDUP FOR SE SOUTH DAKOTA/SW MINNESOTA/NW IOWA
NATIONAL WEATHER SERVICE SIOUX FALLS SD
1200 PM CDT WED MAY 25 2016

NOTE: "FAIR" INDICATES FEW OR NO CLOUDS BELOW 12,000 FEET WITH NO
SIGNIFICANT WEATHER AND OR OBSTRUCTIONS TO VISIBILITY.


SDZ038>040-050-052>070-251800-
SOUTHEAST SOUTH DAKOTA

CITY           SKY/WX    TMP DP  RH WIND       PRES   REMARKS
BROOKINGS      CLOUDY    68  59  73 S15       29.81
CHAMBERLAIN    NOT AVBL
HURON          MOSUNNY   70  59  68 W13       29.77F
MADISON        PTSUNNY   66  66 100 SW12      29.82S
MITCHELL       MOSUNNY   69  60  73 W5        29.80S
SIOUX FALLS    MOSUNNY   71  60  68 SW8       29.82R
WINNER         FAIR      69  59  70 W12       29.82S
YANKTON        SUNNY     73  61  64 W9        29.81R
$$

MNZ071-072-080-081-089-090-097-098-251800-
SOUTHWEST MINNESOTA

CITY           SKY/WX    TMP DP  RH WIND       PRES   REMARKS
FAIRMONT       CLOUDY    72  45  37 SE13      29.83R
JACKSON        CLOUDY    73  61  64 S10       29.84R
LUVERNE        PTSUNNY   72  59  64 SW17G25   29.84R
MARSHALL       MOSUNNY   75  62  64 S21       29.79
MONTEVIDEO     MOSUNNY   73  63  68 S16G22    29.79S
PIPESTONE      CLOUDY    72  61  68 SW17      29.83R
REDWOOD FALLS  CLOUDY    72  64  76 SE21      29.80S
TRACY          MOSUNNY   75  62  64 S15G23    29.82R
WINDOM         PTSUNNY   73  63  68 SE15      29.83R
WORTHINGTON    CLOUDY    72  64  76 S18       29.84
$$

IAZ001>003-012>014-020>022-031-032-NEZ013-014-SDZ071-251800-
NORTHWEST IOWA

CITY           SKY/WX    TMP DP  RH WIND       PRES   REMARKS
CHEROKEE       CLOUDY    73  65  74 S13G18    29.85R
DENISON        MOSUNNY   73  63  68 S14G21    29.82S
ESTHERVILLE    CLOUDY    73  63  70 S13       29.82R
SIOUX CITY     CLOUDY    76  63  64 SW10      29.83F
SPENCER        CLOUDY    75  63  66 S15       29.84R
STORM LAKE       N/A     73  63  68 S21       29.85R
$$

ABBREVIATIONS USED IN REMARKS
   TC - TEMPERATURE IN CELSIUS
  WCI - WIND CHILL INDEX
   HX - HEAT INDEX
  VSB - VISIBILITY




USA.gov is the U.S. government's official web portal to all federal, state and local government web resources and services.